Owen Roberts, Cayman Islands

11:06 AM EST on July 24, 2017 (GMT -0500)
Roberts International

Weather History for MWCR - November, 2012

Change the Weather History Date:

Thursday, November 15, 2012

  Actual Average Record
Temperature  
Mean Temperature 82 °F -  
Max Temperature 86 °F 82 °F 88 °F (2013)
Min Temperature 78 °F 74 °F 69 °F (2010)
Cooling Degree Days 17    
Growing Degree Days 32 (Base 50)    
Moisture  
Dew Point 73 °F    
Average Humidity 75    
Maximum Humidity 83    
Minimum Humidity 62    
Precipitation  
Precipitation 0.00 in - - ()
Sea Level Pressure  
Sea Level Pressure 29.97 in    
Wind  
Wind Speed 8 mph ()    
Max Wind Speed 13 mph    
Max Gust Speed -    
Visibility 6.2 miles    
Events      
Averages and records for this station are not official NWS values.
T = Trace of Precipitation, MM = Missing Value Source: Averaged Metar Reports

Daily Weather History Graph

Daily Weather History Graph

Search for Another Location

Airport or City:

Trip Planner

Search our weather history database for the weather conditions in past years. The results will help you decide how hot, cold, wet, or windy it might be!

Date:

Astronomy

Nov. 15, 2012 Rise Set
Actual Time 6:33 AM EST 5:46 PM EST
Civil Twilight 6:10 AM EST 6:09 PM EST
Nautical Twilight 5:43 AM EST 6:36 PM EST
Astronomical Twilight 5:17 AM EST 7:02 PM EST
Moon 8:18 AM EST (11/15) 7:44 PM EST (11/15)
Length of Visible Light 11h 59m
Length of Day
11h 13m
Waxing Crescent, 5% of the Moon is Illuminated
Nov 15
Waxing Crescent
Nov 20
First Quarter
Nov 28
Full
Dec 6
Last Quarter
Dec 13
New

Hourly Weather History & Observations

Time (EST) Temp. Heat Index Dew Point Humidity Pressure Visibility Wind Dir Wind Speed Gust Speed Precip Events Conditions
6:00 AM 78.8 °F - 73.4 °F 83% 29.92 in 6.2 mi ENE 8.1 mph - N/A   Partly Cloudy
7:00 AM 78 °F - 72 °F 78% 29.96 in 6 mi East 5.8 mph - -  
7:00 AM 78.8 °F - 73.4 °F 83% 29.95 in 6.2 mi East 4.6 mph - N/A   Partly Cloudy
8:00 AM 80.6 °F 85.4 °F 73.4 °F 79% 29.98 in 6.2 mi ENE 10.4 mph - N/A   Partly Cloudy
9:00 AM 82.4 °F 88.2 °F 73.4 °F 74% 29.98 in 6.2 mi East 11.5 mph - N/A   Partly Cloudy
11:00 AM 84.2 °F 90.9 °F 73.4 °F 70% 30.01 in 6.2 mi ENE 11.5 mph - N/A   Partly Cloudy
12:00 PM 84.2 °F 90.9 °F 73.4 °F 70% 29.98 in 6.2 mi ENE 11.5 mph - N/A   Partly Cloudy
1:00 PM 84 °F - 73 °F 62% 29.98 in 6 mi ENE 11.5 mph - -   Scattered Clouds
1:00 PM 84.2 °F 90.9 °F 73.4 °F 70% 29.98 in 6.2 mi ENE 11.5 mph - N/A   Partly Cloudy
1:50 PM 82.4 °F 88.2 °F 73.4 °F 74% 29.95 in 6.2 mi NE 12.7 mph - N/A   Partly Cloudy
2:52 PM 82.4 °F 88.2 °F 73.4 °F 74% 29.95 in 6.2 mi NE 12.7 mph - N/A   Partly Cloudy
3:54 PM 82.4 °F 87.2 °F 71.6 °F 70% 29.92 in 6.2 mi NE 10.4 mph - N/A   Partly Cloudy
4:54 PM 80.6 °F 84.6 °F 71.6 °F 74% 29.95 in 6.2 mi NE 10.4 mph - N/A   Partly Cloudy
5:52 PM 80.6 °F 84.6 °F 71.6 °F 74% 29.95 in 6.2 mi ENE 10.4 mph - N/A   Partly Cloudy
6:50 PM 78.8 °F - 71.6 °F 78% 29.95 in 6.2 mi ENE 10.4 mph - N/A   Partly Cloudy
7:00 PM 79 °F - 71 °F 71% 29.97 in 6 mi ENE 10.4 mph - -   Scattered Clouds
7:51 PM 78.8 °F - 71.6 °F 78% 29.98 in 6.2 mi ENE 11.5 mph - N/A   Partly Cloudy
8:52 PM 78.8 °F - 71.6 °F 78% 29.98 in 6.2 mi ENE 10.4 mph - N/A   Partly Cloudy
9:50 PM 78.8 °F - 71.6 °F 78% 30.01 in 6.2 mi NE 10.4 mph - N/A   Partly Cloudy